Weather History for KELM - November, 2012

Change the Weather History Date:

Tuesday, November 20, 2012

  Actual Average Record
Temperature  
Mean Temperature 38 °F -  
Max Temperature 50 °F 47 °F 71 °F (1934)
Min Temperature 27 °F 28 °F 8 °F (1986)
Degree Days  
Heating Degree Days 26    
Moisture  
Dew Point 29 °F    
Average Humidity 78    
Maximum Humidity 96    
Minimum Humidity 50    
Precipitation  
Precipitation 0.00 in - - ()
Sea Level Pressure  
Sea Level Pressure 30.18 in    
Wind  
Wind Speed 0 mph (NNE)    
Max Wind Speed 4 mph    
Max Gust Speed -    
Visibility 9 miles    
Events      
Averages and records for this station are not official NWS values.
T = Trace of Precipitation, MM = Missing Value Source: NWS Daily Summary

Daily Weather History Graph

Daily Weather History Graph

Search for Another Location

Airport or City:

Trip Planner

Search our weather history database for the weather conditions in past years. The results will help you decide how hot, cold, wet, or windy it might be!

Date:

Astronomy

Nov. 20, 2012 Rise Set
Actual Time 7:04 AM EST 4:41 PM EST
Civil Twilight 6:33 AM EST 5:12 PM EST
Nautical Twilight 5:59 AM EST 5:46 PM EST
Astronomical Twilight 5:26 AM EST 6:19 PM EST
Moon 12:34 PM EST (11/20) No Moon Set
Length of Visible Light 10h 38m
Length of Day
9h 37m
Waxing Crescent, 51% of the Moon is Illuminated
Nov 20
Waxing Crescent
Nov 28
Full
Dec 6
Last Quarter
Dec 13
New
Dec 20
First Quarter

Hourly Weather History & Observations

Time (EST) Temp. Windchill Dew Point Humidity Pressure Visibility Wind Dir Wind Speed Gust Speed Precip Events Conditions
12:53 AM 27.0 °F - 24.1 °F 89% 30.25 in 7.0 mi Calm Calm - N/A   Clear
1:53 AM 27.0 °F - 26.1 °F 96% 30.24 in 8.0 mi Calm Calm - N/A   Clear
2:53 AM 28.0 °F - 25.0 °F 88% 30.23 in 9.0 mi Calm Calm - N/A   Clear
3:53 AM 28.0 °F - 25.0 °F 88% 30.22 in 6.0 mi Calm Calm - N/A   Clear
4:53 AM 28.0 °F - 26.1 °F 92% 30.22 in 7.0 mi Calm Calm - N/A   Clear
5:53 AM 28.0 °F - 25.0 °F 88% 30.22 in 4.0 mi Calm Calm - N/A   Clear
6:53 AM 27.0 °F - 24.1 °F 89% 30.22 in 7.0 mi Calm Calm - N/A   Clear
7:53 AM 28.9 °F - 27.0 °F 92% 30.23 in 6.0 mi Calm Calm - N/A   Clear
8:53 AM 32.0 °F - 28.9 °F 88% 30.23 in 7.0 mi Calm Calm - N/A   Clear
9:53 AM 35.1 °F - 30.0 °F 82% 30.22 in 8.0 mi Calm Calm - N/A   Clear
10:53 AM 39.0 °F - 32.0 °F 76% 30.19 in 10.0 mi Calm Calm - N/A   Clear
11:53 AM 44.1 °F - 33.1 °F 65% 30.16 in 10.0 mi Calm Calm - N/A   Clear
12:53 PM 48.0 °F - 30.9 °F 52% 30.14 in 10.0 mi Calm Calm - N/A   Clear
1:53 PM 48.9 °F - 30.9 °F 50% 30.12 in 10.0 mi Calm Calm - N/A   Clear
2:53 PM 50.0 °F - 32.0 °F 50% 30.12 in 10.0 mi Calm Calm - N/A   Clear
3:53 PM 48.0 °F - 32.0 °F 54% 30.12 in 10.0 mi Calm Calm - N/A   Clear
4:53 PM 43.0 °F - 30.9 °F 62% 30.13 in 10.0 mi Calm Calm - N/A   Clear
5:53 PM 41.0 °F - 30.9 °F 67% 30.14 in 10.0 mi Calm Calm - N/A   Clear
6:53 PM 33.1 °F 30.0 °F 28.9 °F 85% 30.16 in 10.0 mi NNE 3.5 mph - N/A   Clear
7:53 PM 35.1 °F - 28.9 °F 78% 30.16 in 10.0 mi Calm Calm - N/A   Clear
8:53 PM 32.0 °F - 28.0 °F 85% 30.17 in 10.0 mi Calm Calm - N/A   Clear
9:53 PM 33.1 °F - 28.9 °F 85% 30.17 in 10.0 mi Calm Calm - N/A   Clear
10:53 PM 34.0 °F - 28.9 °F 82% 30.17 in 10.0 mi Calm Calm - N/A   Clear
11:53 PM 33.1 °F - 30.0 °F 89% 30.17 in 10.0 mi Calm Calm - N/A   Overcast